BISIN19 CYQQ-CYEG

Flight info

Callsign BISIN19
Flight time N/A
Altitude 39000
Route PILSA DCT LYTON DCT ROMRA Q949 ELLKS ELLKS3
Aircraft C17/H-SDE1E2FGHIJ5RTUWXY/LB1D1

Departure

Time 2026-04-19 14:21
Airport Comox Valley International Airport / CFB Comox (CYQQ)

Arrival

Time N/A
Airport Edmonton International Airport (CYEG)
Time Latitude Longitude Altitude Speed Heading
2026-04-19 14:20 49.70172 -124.87238 88 ft 0 kts 315°
2026-04-19 14:20 49.70263 -124.87377 91 ft 59 kts 315°
2026-04-19 14:20 49.70760 -124.88139 106 ft 132 kts 315°
2026-04-19 14:21 49.71543 -124.89301 335 ft 188 kts 317°
2026-04-19 14:21 49.72659 -124.90860 647 ft 246 kts 319°
2026-04-19 14:21 49.73910 -124.92516 1033 ft 215 kts 321°
2026-04-19 14:21 49.74994 -124.93881 1378 ft 198 kts 322°
2026-04-19 14:22 49.76168 -124.95279 1697 ft 219 kts 324°
2026-04-19 14:22 49.77409 -124.96684 2074 ft 224 kts 325°
2026-04-19 14:22 49.78694 -124.98071 2464 ft 226 kts 326°
2026-04-19 14:22 49.80012 -124.99416 2833 ft 227 kts 328°
2026-04-19 14:23 49.81363 -125.00720 3203 ft 230 kts 329°
2026-04-19 14:23 49.82741 -125.01979 3578 ft 230 kts 330°
2026-04-19 14:23 49.84127 -125.03173 3956 ft 231 kts 332°
2026-04-19 14:23 49.85560 -125.04334 4331 ft 233 kts 334°
2026-04-19 14:24 49.87019 -125.05448 4707 ft 234 kts 335°
2026-04-19 14:24 49.87454 -125.05768 4819 ft 235 kts 335°
2026-04-19 14:25 49.87989 -125.06153 4951 ft 235 kts 336°
2026-04-19 14:25 49.89488 -125.07183 5334 ft 236 kts 337°
2026-04-19 14:26 49.91015 -125.08163 5705 ft 238 kts 339°